Time,TemperatureF,DewpointF,PressureIn,WindDirection,WindDirectionDegrees,WindSpeedMPH,WindSpeedGustMPH,Humidity,HourlyPrecipIn,Conditions,Clouds,dailyrainin,SoftwareType,DateUTC
2013-03-20 00:00:00,29.7,21.8,30.00,NW,324,4.0,16.0,72,0.00,,,0.01,WUHU216DAVISVP2,2013-03-20 04:00:00,
2013-03-20 00:05:00,29.9,21.0,30.00,WSW,257,16.0,24.0,69,0.00,,,0.01,WUHU216DAVISVP2,2013-03-20 04:05:00,
2013-03-20 00:10:00,29.9,20.0,30.00,NW,314,22.0,26.0,66,0.00,,,0.00,WUHU216DAVISVP2,2013-03-20 04:10:00,
2013-03-20 00:15:00,29.9,19.6,30.00,NNW,340,10.0,26.0,65,0.00,,,0.00,WUHU216DAVISVP2,2013-03-20 04:15:00,
2013-03-20 00:20:00,29.8,19.5,30.00,NW,315,12.0,24.0,65,0.00,,,0.00,WUHU216DAVISVP2,2013-03-20 04:20:00,
2013-03-20 00:26:00,29.8,18.8,30.00,WNW,294,10.0,30.0,63,0.00,,,0.00,WUHU216DAVISVP2,2013-03-20 04:26:00,
2013-03-20 00:31:00,29.8,19.2,30.01,NW,309,8.0,30.0,64,0.00,,,0.00,WUHU216DAVISVP2,2013-03-20 04:31:00,
2013-03-20 00:36:00,29.9,19.3,30.01,West,265,16.0,28.0,64,0.00,,,0.00,WUHU216DAVISVP2,2013-03-20 04:36:00,
2013-03-20 00:41:00,29.9,19.6,30.01,NW,321,10.0,28.0,65,0.00,,,0.00,WUHU216DAVISVP2,2013-03-20 04:41:00,
2013-03-20 00:46:00,29.8,19.5,30.00,West,279,10.0,26.0,65,0.00,,,0.00,WUHU216DAVISVP2,2013-03-20 04:46:00,
2013-03-20 00:51:00,29.8,19.9,30.00,West,259,14.0,26.0,66,0.00,,,0.00,WUHU216DAVISVP2,2013-03-20 04:51:00,
2013-03-20 00:56:00,29.8,19.9,30.01,West,277,8.0,26.0,66,0.00,,,0.00,WUHU216DAVISVP2,2013-03-20 04:56:00,
2013-03-20 01:04:00,29.8,19.8,30.00,West,272,6.0,28.0,66,0.00,,,0.00,WUHU216DAVISVP2,2013-03-20 05:04:00,
2013-03-20 01:09:00,29.8,19.9,30.00,North,360,10.0,24.0,66,0.00,,,0.00,WUHU216DAVISVP2,2013-03-20 05:09:00,
2013-03-20 01:14:00,29.7,19.8,30.01,West,271,10.0,24.0,66,0.00,,,0.00,WUHU216DAVISVP2,2013-03-20 05:14:00,
2013-03-20 01:19:00,29.7,19.1,30.01,WNW,296,20.0,28.0,64,0.00,,,0.00,WUHU216DAVISVP2,2013-03-20 05:19:00,
2013-03-20 01:25:00,29.6,19.3,30.01,NW,319,14.0,28.0,65,0.00,,,0.00,WUHU216DAVISVP2,2013-03-20 05:25:00,
2013-03-20 01:30:00,29.5,19.2,30.01,North,355,4.0,22.0,65,0.00,,,0.00,WUHU216DAVISVP2,2013-03-20 05:30:00,
2013-03-20 01:35:00,29.4,19.1,30.02,NW,306,22.0,30.0,65,0.00,,,0.00,WUHU216DAVISVP2,2013-03-20 05:35:00,
2013-03-20 01:40:00,29.4,19.1,30.01,West,263,10.0,30.0,65,0.00,,,0.00,WUHU216DAVISVP2,2013-03-20 05:40:00,
2013-03-20 01:45:00,29.3,18.7,30.02,NW,322,14.0,24.0,64,0.00,,,0.00,WUHU216DAVISVP2,2013-03-20 05:45:00,
2013-03-20 01:50:00,29.2,18.6,30.02,NW,321,8.0,30.0,64,0.00,,,0.00,WUHU216DAVISVP2,2013-03-20 05:50:00,
2013-03-20 01:55:00,29.2,18.2,30.01,WNW,284,8.0,32.0,63,0.00,,,0.00,WUHU216DAVISVP2,2013-03-20 05:55:00,
2013-03-20 02:00:00,29.2,18.6,30.02,West,276,4.0,32.0,64,0.00,,,0.00,WUHU216DAVISVP2,2013-03-20 06:00:00,
2013-03-20 02:05:00,29.2,18.6,30.02,WNW,292,28.0,28.0,64,0.00,,,0.00,WUHU216DAVISVP2,2013-03-20 06:05:00,
2013-03-20 02:10:00,29.1,18.1,30.02,WNW,302,20.0,28.0,63,0.00,,,0.00,WUHU216DAVISVP2,2013-03-20 06:10:00,
2013-03-20 02:15:00,29.0,18.8,30.02,WNW,294,16.0,26.0,65,0.00,,,0.00,WUHU216DAVISVP2,2013-03-20 06:15:00,
2013-03-20 02:20:00,29.0,19.1,30.02,West,265,10.0,26.0,66,0.00,,,0.00,WUHU216DAVISVP2,2013-03-20 06:20:00,
2013-03-20 02:25:00,28.9,19.4,30.02,NW,319,10.0,24.0,67,0.00,,,0.00,WUHU216DAVISVP2,2013-03-20 06:25:00,
2013-03-20 02:30:00,28.9,19.4,30.02,West,263,6.0,24.0,67,0.00,,,0.00,WUHU216DAVISVP2,2013-03-20 06:30:00,
2013-03-20 02:35:00,28.9,19.4,30.02,NW,315,16.0,24.0,67,0.00,,,0.00,WUHU216DAVISVP2,2013-03-20 06:35:00,
2013-03-20 02:40:00,28.8,18.9,30.02,North,355,12.0,24.0,66,0.00,,,0.00,WUHU216DAVISVP2,2013-03-20 06:40:00,
2013-03-20 02:45:00,28.8,19.3,30.02,West,281,10.0,22.0,67,0.00,,,0.00,WUHU216DAVISVP2,2013-03-20 06:45:00,
2013-03-20 02:50:00,28.8,18.9,30.02,WNW,295,12.0,24.0,66,0.00,,,0.00,WUHU216DAVISVP2,2013-03-20 06:50:00,
2013-03-20 02:55:00,28.8,18.9,30.02,WNW,294,10.0,24.0,66,0.00,,,0.00,WUHU216DAVISVP2,2013-03-20 06:55:00,
2013-03-20 03:01:00,28.8,18.9,30.02,NW,313,10.0,24.0,66,0.00,,,0.00,WUHU216DAVISVP2,2013-03-20 07:01:00,
2013-03-20 03:06:00,28.8,19.3,30.01,NW,321,6.0,24.0,67,0.00,,,0.00,WUHU216DAVISVP2,2013-03-20 07:06:00,
2013-03-20 03:12:00,28.7,19.2,30.01,NW,306,18.0,20.0,67,0.00,,,0.00,WUHU216DAVISVP2,2013-03-20 07:12:00,
2013-03-20 03:17:00,28.8,19.3,30.01,NW,323,6.0,24.0,67,0.00,,,0.00,WUHU216DAVISVP2,2013-03-20 07:17:00,
2013-03-20 03:22:00,28.8,19.6,30.01,West,267,10.0,22.0,68,0.00,,,0.00,WUHU216DAVISVP2,2013-03-20 07:22:00,
2013-03-20 03:27:00,28.8,20.0,30.01,WNW,301,10.0,22.0,69,0.00,,,0.00,WUHU216DAVISVP2,2013-03-20 07:27:00,
2013-03-20 03:32:00,28.8,20.3,30.01,NW,320,14.0,22.0,70,0.00,,,0.00,WUHU216DAVISVP2,2013-03-20 07:32:00,
2013-03-20 03:37:00,28.7,20.2,30.01,West,279,8.0,20.0,70,0.00,,,0.00,WUHU216DAVISVP2,2013-03-20 07:37:00,
2013-03-20 03:42:00,28.7,20.2,30.01,NW,316,20.0,24.0,70,0.00,,,0.00,WUHU216DAVISVP2,2013-03-20 07:42:00,
2013-03-20 03:47:00,28.7,19.5,30.00,West,281,10.0,24.0,68,0.00,,,0.00,WUHU216DAVISVP2,2013-03-20 07:47:00,
2013-03-20 03:52:00,28.7,19.2,30.01,West,278,20.0,26.0,67,0.00,,,0.00,WUHU216DAVISVP2,2013-03-20 07:52:00,
2013-03-20 03:57:00,28.7,19.2,30.00,NW,319,14.0,26.0,67,0.00,,,0.00,WUHU216DAVISVP2,2013-03-20 07:57:00,
2013-03-20 04:03:00,28.6,18.7,30.00,NW,311,6.0,22.0,66,0.00,,,0.00,WUHU216DAVISVP2,2013-03-20 08:03:00,
2013-03-20 04:08:00,28.6,18.7,30.00,NW,307,10.0,22.0,66,0.00,,,0.00,WUHU216DAVISVP2,2013-03-20 08:08:00,
2013-03-20 04:13:00,28.5,19.3,30.00,NW,308,10.0,20.0,68,0.00,,,0.00,WUHU216DAVISVP2,2013-03-20 08:13:00,
2013-03-20 04:18:00,28.5,19.3,30.00,NW,309,12.0,18.0,68,0.00,,,0.00,WUHU216DAVISVP2,2013-03-20 08:18:00,
2013-03-20 04:23:00,28.5,19.0,30.00,WNW,294,10.0,22.0,67,0.00,,,0.00,WUHU216DAVISVP2,2013-03-20 08:23:00,
2013-03-20 04:28:00,28.5,19.3,30.00,NNW,331,4.0,22.0,68,0.00,,,0.00,WUHU216DAVISVP2,2013-03-20 08:28:00,
2013-03-20 04:33:00,28.5,19.3,30.00,West,278,4.0,16.0,68,0.00,,,0.00,WUHU216DAVISVP2,2013-03-20 08:33:00,
2013-03-20 04:38:00,28.4,19.6,30.00,WNW,298,10.0,16.0,69,0.00,,,0.00,WUHU216DAVISVP2,2013-03-20 08:38:00,
2013-03-20 04:43:00,28.4,19.6,30.00,WNW,286,10.0,20.0,69,0.00,,,0.00,WUHU216DAVISVP2,2013-03-20 08:43:00,
2013-03-20 04:48:00,28.4,19.2,30.00,WNW,290,10.0,20.0,68,0.00,,,0.00,WUHU216DAVISVP2,2013-03-20 08:48:00,
2013-03-20 04:53:00,28.4,19.2,30.00,NW,304,6.0,18.0,68,0.00,,,0.00,WUHU216DAVISVP2,2013-03-20 08:53:00,
2013-03-20 04:58:00,28.4,19.6,30.00,WNW,290,4.0,16.0,69,0.00,,,0.00,WUHU216DAVISVP2,2013-03-20 08:58:00,
2013-03-20 05:03:00,28.4,19.6,30.00,NNW,340,10.0,14.0,69,0.00,,,0.00,WUHU216DAVISVP2,2013-03-20 09:03:00,
2013-03-20 05:08:00,28.4,19.2,30.00,NW,315,4.0,14.0,68,0.00,,,0.00,WUHU216DAVISVP2,2013-03-20 09:08:00,
2013-03-20 05:13:00,28.3,19.5,30.00,WNW,298,12.0,16.0,69,0.00,,,0.00,WUHU216DAVISVP2,2013-03-20 09:13:00,
2013-03-20 05:18:00,28.3,19.5,30.00,NW,315,12.0,16.0,69,0.00,,,0.00,WUHU216DAVISVP2,2013-03-20 09:18:00,
2013-03-20 05:23:00,28.3,19.8,30.00,NW,323,4.0,16.0,70,0.00,,,0.00,WUHU216DAVISVP2,2013-03-20 09:23:00,
2013-03-20 05:28:00,28.3,19.5,30.00,WNW,284,6.0,16.0,69,0.00,,,0.00,WUHU216DAVISVP2,2013-03-20 09:28:00,
2013-03-20 05:33:00,28.3,19.5,30.00,WNW,291,8.0,18.0,69,0.00,,,0.00,WUHU216DAVISVP2,2013-03-20 09:33:00,
2013-03-20 05:38:00,28.3,19.1,30.00,WNW,288,10.0,18.0,68,0.00,,,0.00,WUHU216DAVISVP2,2013-03-20 09:38:00,
2013-03-20 05:43:00,28.3,18.8,30.00,WNW,290,6.0,14.0,67,0.00,,,0.00,WUHU216DAVISVP2,2013-03-20 09:43:00,
2013-03-20 05:48:00,28.3,18.8,30.00,West,273,12.0,14.0,67,0.00,,,0.00,WUHU216DAVISVP2,2013-03-20 09:48:00,
2013-03-20 05:53:00,28.1,19.0,30.00,NNW,327,18.0,20.0,68,0.00,,,0.00,WUHU216DAVISVP2,2013-03-20 09:53:00,
2013-03-20 05:58:00,27.9,19.1,30.00,North,355,6.0,30.0,69,0.00,,,0.00,WUHU216DAVISVP2,2013-03-20 09:58:00,
2013-03-20 06:03:00,27.8,19.7,30.00,WNW,296,14.0,30.0,71,0.00,,,0.00,WUHU216DAVISVP2,2013-03-20 10:03:00,
2013-03-20 06:09:00,27.7,19.9,30.00,WNW,295,8.0,20.0,72,0.00,,,0.00,WUHU216DAVISVP2,2013-03-20 10:09:00,
2013-03-20 06:14:00,27.6,19.8,30.00,WNW,286,8.0,18.0,72,0.00,,,0.00,WUHU216DAVISVP2,2013-03-20 10:14:00,
2013-03-20 06:19:00,27.6,20.1,30.00,NW,306,6.0,14.0,73,0.00,,,0.00,WUHU216DAVISVP2,2013-03-20 10:19:00,
2013-03-20 06:24:00,27.5,19.7,30.00,WNW,294,4.0,16.0,72,0.00,,,0.00,WUHU216DAVISVP2,2013-03-20 10:24:00,
2013-03-20 06:29:00,27.6,19.8,30.00,West,266,10.0,18.0,72,0.00,,,0.00,WUHU216DAVISVP2,2013-03-20 10:29:00,
2013-03-20 06:34:00,27.6,19.8,30.00,NNW,331,8.0,18.0,72,0.00,,,0.00,WUHU216DAVISVP2,2013-03-20 10:34:00,
2013-03-20 06:39:00,27.6,19.8,30.00,WNW,283,4.0,14.0,72,0.00,,,0.00,WUHU216DAVISVP2,2013-03-20 10:39:00,
2013-03-20 06:44:00,27.5,19.7,30.00,WNW,290,10.0,14.0,72,0.00,,,0.00,WUHU216DAVISVP2,2013-03-20 10:44:00,
2013-03-20 06:49:00,27.4,19.9,29.99,NNW,330,12.0,14.0,73,0.00,,,0.00,WUHU216DAVISVP2,2013-03-20 10:49:00,
2013-03-20 06:54:00,27.3,20.1,29.99,WNW,301,6.0,14.0,74,0.00,,,0.00,WUHU216DAVISVP2,2013-03-20 10:54:00,
2013-03-20 06:59:00,27.3,19.8,29.99,West,264,8.0,16.0,73,0.00,,,0.00,WUHU216DAVISVP2,2013-03-20 10:59:00,
2013-03-20 07:04:00,27.3,19.8,29.99,SW,215,4.0,16.0,73,0.00,,,0.00,WUHU216DAVISVP2,2013-03-20 11:04:00,
2013-03-20 07:09:00,27.4,19.9,29.98,NNW,333,10.0,12.0,73,0.00,,,0.00,WUHU216DAVISVP2,2013-03-20 11:09:00,
2013-03-20 07:14:00,27.4,19.6,29.98,WNW,295,4.0,12.0,72,0.00,,,0.00,WUHU216DAVISVP2,2013-03-20 11:14:00,
2013-03-20 07:19:00,27.4,19.6,29.98,WNW,300,0.0,10.0,72,0.00,,,0.00,WUHU216DAVISVP2,2013-03-20 11:19:00,
2013-03-20 07:24:00,27.4,19.6,29.99,West,272,4.0,12.0,72,0.00,,,0.00,WUHU216DAVISVP2,2013-03-20 11:24:00,
2013-03-20 07:29:00,27.4,19.6,29.99,NW,310,4.0,12.0,72,0.00,,,0.00,WUHU216DAVISVP2,2013-03-20 11:29:00,
2013-03-20 07:34:00,27.4,19.6,29.98,WNW,289,4.0,12.0,72,0.00,,,0.00,WUHU216DAVISVP2,2013-03-20 11:34:00,
2013-03-20 07:39:00,27.4,19.6,29.98,WNW,298,6.0,12.0,72,0.00,,,0.00,WUHU216DAVISVP2,2013-03-20 11:39:00,
2013-03-20 07:44:00,27.4,19.6,29.99,WNW,284,4.0,12.0,72,0.00,,,0.00,WUHU216DAVISVP2,2013-03-20 11:44:00,
2013-03-20 07:49:00,27.4,19.9,29.99,NW,305,8.0,14.0,73,0.00,,,0.00,WUHU216DAVISVP2,2013-03-20 11:49:00,
2013-03-20 07:54:00,27.4,20.2,29.99,WNW,285,4.0,14.0,74,0.00,,,0.00,WUHU216DAVISVP2,2013-03-20 11:54:00,
2013-03-20 07:59:00,27.4,19.9,29.99,West,271,4.0,12.0,73,0.00,,,0.00,WUHU216DAVISVP2,2013-03-20 11:59:00,
2013-03-20 08:05:00,27.4,20.2,29.99,West,277,12.0,14.0,74,0.00,,,0.00,WUHU216DAVISVP2,2013-03-20 12:05:00,
2013-03-20 08:09:00,27.5,19.7,29.99,WSW,252,4.0,14.0,72,0.00,,,0.00,WUHU216DAVISVP2,2013-03-20 12:09:00,
2013-03-20 08:15:00,27.5,19.7,29.99,WNW,284,0.0,16.0,72,0.00,,,0.00,WUHU216DAVISVP2,2013-03-20 12:15:00,
2013-03-20 08:20:00,27.4,19.6,29.99,West,277,6.0,16.0,72,0.00,,,0.00,WUHU216DAVISVP2,2013-03-20 12:20:00,
2013-03-20 08:25:00,27.4,19.6,29.99,WSW,250,14.0,18.0,72,0.00,,,0.00,WUHU216DAVISVP2,2013-03-20 12:25:00,
2013-03-20 08:30:00,27.2,19.4,29.98,WSW,247,8.0,18.0,72,0.00,,,0.00,WUHU216DAVISVP2,2013-03-20 12:30:00,
2013-03-20 08:35:00,27.1,19.3,29.99,West,272,10.0,26.0,72,0.00,,,0.00,WUHU216DAVISVP2,2013-03-20 12:35:00,
2013-03-20 08:40:00,27.2,19.1,29.99,NW,316,6.0,28.0,71,0.00,,,0.00,WUHU216DAVISVP2,2013-03-20 12:40:00,
2013-03-20 08:45:00,27.2,19.1,29.98,West,273,2.0,28.0,71,0.00,,,0.00,WUHU216DAVISVP2,2013-03-20 12:45:00,
2013-03-20 08:50:00,27.2,19.1,29.98,West,259,4.0,18.0,71,0.00,,,0.00,WUHU216DAVISVP2,2013-03-20 12:50:00,
2013-03-20 08:55:00,27.3,19.2,29.98,WSW,245,8.0,12.0,71,0.00,,,0.00,WUHU216DAVISVP2,2013-03-20 12:55:00,
2013-03-20 09:00:00,27.4,19.3,29.98,West,261,8.0,14.0,71,0.00,,,0.00,WUHU216DAVISVP2,2013-03-20 13:00:00,
2013-03-20 09:05:00,27.5,19.4,29.98,West,261,6.0,26.0,71,0.00,,,0.00,WUHU216DAVISVP2,2013-03-20 13:05:00,
2013-03-20 09:10:00,27.7,19.2,29.98,West,263,6.0,26.0,70,0.00,,,0.00,WUHU216DAVISVP2,2013-03-20 13:10:00,
2013-03-20 09:15:00,27.8,19.3,29.98,WSW,244,12.0,18.0,70,0.00,,,0.00,WUHU216DAVISVP2,2013-03-20 13:15:00,
2013-03-20 09:20:00,27.6,19.1,29.98,West,263,12.0,20.0,70,0.00,,,0.00,WUHU216DAVISVP2,2013-03-20 13:20:00,
2013-03-20 09:25:00,27.6,18.8,29.98,NNW,348,4.0,20.0,69,0.00,,,0.00,WUHU216DAVISVP2,2013-03-20 13:25:00,
2013-03-20 09:30:00,27.6,18.8,29.98,NW,314,8.0,18.0,69,0.00,,,0.00,WUHU216DAVISVP2,2013-03-20 13:30:00,
2013-03-20 09:35:00,27.5,19.1,29.98,West,278,6.0,18.0,70,0.00,,,0.00,WUHU216DAVISVP2,2013-03-20 13:35:00,
2013-03-20 09:40:00,27.6,18.8,29.98,NW,313,10.0,14.0,69,0.00,,,0.00,WUHU216DAVISVP2,2013-03-20 13:40:00,
2013-03-20 09:45:00,27.7,19.2,29.98,West,280,6.0,14.0,70,0.00,,,0.00,WUHU216DAVISVP2,2013-03-20 13:45:00,
2013-03-20 09:51:00,27.8,18.7,29.98,WNW,291,12.0,16.0,68,0.00,,,0.00,WUHU216DAVISVP2,2013-03-20 13:51:00,
2013-03-20 09:56:00,27.8,18.7,29.98,WNW,295,8.0,18.0,68,0.00,,,0.00,WUHU216DAVISVP2,2013-03-20 13:56:00,
2013-03-20 10:01:00,27.9,19.1,29.98,West,267,6.0,18.0,69,0.00,,,0.00,WUHU216DAVISVP2,2013-03-20 14:01:00,
2013-03-20 10:06:00,28.0,18.9,29.98,WNW,297,8.0,16.0,68,0.00,,,0.00,WUHU216DAVISVP2,2013-03-20 14:06:00,
2013-03-20 10:11:00,28.3,19.1,29.98,WSW,256,10.0,20.0,68,0.00,,,0.00,WUHU216DAVISVP2,2013-03-20 14:11:00,
2013-03-20 10:17:00,28.3,18.5,29.98,West,270,10.0,20.0,66,0.00,,,0.00,WUHU216DAVISVP2,2013-03-20 14:17:00,
2013-03-20 10:22:00,28.0,18.2,29.98,West,280,4.0,18.0,66,0.00,,,0.00,WUHU216DAVISVP2,2013-03-20 14:22:00,
2013-03-20 10:27:00,28.1,18.3,29.98,WNW,292,10.0,18.0,66,0.00,,,0.00,WUHU216DAVISVP2,2013-03-20 14:27:00,
2013-03-20 10:32:00,28.3,18.8,29.98,WSW,257,6.0,16.0,67,0.00,,,0.00,WUHU216DAVISVP2,2013-03-20 14:32:00,
2013-03-20 10:37:00,28.4,18.2,29.98,WSW,248,8.0,16.0,65,0.00,,,0.00,WUHU216DAVISVP2,2013-03-20 14:37:00,
2013-03-20 10:42:00,28.3,18.1,29.98,West,265,10.0,18.0,65,0.00,,,0.00,WUHU216DAVISVP2,2013-03-20 14:42:00,
2013-03-20 10:47:00,28.5,18.6,29.98,West,276,6.0,18.0,66,0.00,,,0.00,WUHU216DAVISVP2,2013-03-20 14:47:00,
2013-03-20 10:52:00,28.5,17.9,29.98,NW,312,6.0,16.0,64,0.00,,,0.00,WUHU216DAVISVP2,2013-03-20 14:52:00,
2013-03-20 10:57:00,28.4,18.2,29.98,WNW,286,14.0,24.0,65,0.00,,,0.00,WUHU216DAVISVP2,2013-03-20 14:57:00,
2013-03-20 11:02:00,28.4,18.2,29.98,WNW,296,10.0,24.0,65,0.00,,,0.00,WUHU216DAVISVP2,2013-03-20 15:02:00,
2013-03-20 11:07:00,28.3,18.1,29.98,West,269,10.0,22.0,65,0.00,,,0.00,WUHU216DAVISVP2,2013-03-20 15:07:00,
2013-03-20 11:12:00,28.6,19.1,29.98,WNW,286,8.0,22.0,67,0.00,,,0.00,WUHU216DAVISVP2,2013-03-20 15:12:00,
2013-03-20 11:17:00,28.8,19.3,29.97,NW,306,4.0,16.0,67,0.00,,,0.00,WUHU216DAVISVP2,2013-03-20 15:17:00,
2013-03-20 11:22:00,28.8,19.6,29.98,West,273,14.0,14.0,68,0.00,,,0.00,WUHU216DAVISVP2,2013-03-20 15:22:00,
2013-03-20 11:27:00,28.6,19.4,29.98,NW,307,14.0,20.0,68,0.00,,,0.00,WUHU216DAVISVP2,2013-03-20 15:27:00,
2013-03-20 11:32:00,28.2,19.7,29.98,WNW,286,4.0,30.0,70,0.00,,,0.00,WUHU216DAVISVP2,2013-03-20 15:32:00,
2013-03-20 11:37:00,28.4,20.6,29.98,NW,307,8.0,30.0,72,0.00,,,0.00,WUHU216DAVISVP2,2013-03-20 15:37:00,
2013-03-20 11:43:00,27.9,20.1,29.98,WNW,296,8.0,20.0,72,0.00,,,0.00,WUHU216DAVISVP2,2013-03-20 15:43:00,
2013-03-20 11:48:00,28.3,21.1,29.98,NW,309,4.0,20.0,74,0.00,,,0.00,WUHU216DAVISVP2,2013-03-20 15:48:00,
2013-03-20 11:53:00,28.3,20.2,29.98,WNW,292,22.0,28.0,71,0.00,,,0.00,WUHU216DAVISVP2,2013-03-20 15:53:00,
2013-03-20 11:58:00,28.0,19.9,29.98,NW,305,16.0,28.0,71,0.00,,,0.00,WUHU216DAVISVP2,2013-03-20 15:58:00,
2013-03-20 12:03:00,28.0,20.5,29.98,NW,325,12.0,24.0,73,0.00,,,0.00,WUHU216DAVISVP2,2013-03-20 16:03:00,
2013-03-20 12:08:00,28.1,19.0,29.98,NW,315,10.0,22.0,68,0.00,,,0.00,WUHU216DAVISVP2,2013-03-20 16:08:00,
2013-03-20 12:13:00,28.5,19.3,29.98,WNW,294,14.0,24.0,68,0.00,,,0.00,WUHU216DAVISVP2,2013-03-20 16:13:00,
2013-03-20 12:18:00,28.8,19.6,29.98,WNW,301,12.0,26.0,68,0.00,,,0.00,WUHU216DAVISVP2,2013-03-20 16:18:00,
2013-03-20 12:23:00,28.4,19.2,29.98,WNW,298,8.0,28.0,68,0.00,,,0.00,WUHU216DAVISVP2,2013-03-20 16:23:00,
2013-03-20 12:28:00,28.3,19.5,29.98,NNW,331,18.0,28.0,69,0.00,,,0.00,WUHU216DAVISVP2,2013-03-20 16:28:00,
2013-03-20 12:33:00,28.2,20.1,29.98,WNW,294,6.0,26.0,71,0.00,,,0.00,WUHU216DAVISVP2,2013-03-20 16:33:00,
2013-03-20 12:38:00,27.8,20.6,29.98,NNW,337,12.0,28.0,74,0.00,,,0.00,WUHU216DAVISVP2,2013-03-20 16:38:00,
2013-03-20 12:43:00,27.4,21.5,29.98,West,273,18.0,28.0,78,0.00,,,0.00,WUHU216DAVISVP2,2013-03-20 16:43:00,
2013-03-20 12:48:00,27.3,21.9,29.98,NW,317,14.0,22.0,80,0.00,,,0.00,WUHU216DAVISVP2,2013-03-20 16:48:00,
2013-03-20 12:53:00,26.8,21.5,29.98,NW,313,8.0,22.0,80,0.00,,,0.00,WUHU216DAVISVP2,2013-03-20 16:53:00,
2013-03-20 12:58:00,26.3,21.5,29.98,NW,315,18.0,22.0,82,0.00,,,0.00,WUHU216DAVISVP2,2013-03-20 16:58:00,
2013-03-20 13:03:00,25.7,21.2,29.98,West,269,8.0,24.0,83,0.00,,,0.00,WUHU216DAVISVP2,2013-03-20 17:03:00,
2013-03-20 13:08:00,26.0,21.5,29.98,West,273,6.0,24.0,83,0.00,,,0.00,WUHU216DAVISVP2,2013-03-20 17:08:00,
2013-03-20 13:13:00,26.5,20.9,29.98,NW,324,14.0,22.0,79,0.00,,,0.00,WUHU216DAVISVP2,2013-03-20 17:13:00,
2013-03-20 13:18:00,26.7,21.1,29.98,NW,308,10.0,28.0,79,0.00,,,0.00,WUHU216DAVISVP2,2013-03-20 17:18:00,
2013-03-20 13:23:00,26.8,20.0,29.98,NNW,339,6.0,28.0,75,0.00,,,0.00,WUHU216DAVISVP2,2013-03-20 17:23:00,
2013-03-20 13:28:00,27.2,19.7,29.98,WSW,254,6.0,22.0,73,0.00,,,0.00,WUHU216DAVISVP2,2013-03-20 17:28:00,
2013-03-20 13:33:00,27.6,18.8,29.98,NNW,333,8.0,20.0,69,0.00,,,0.00,WUHU216DAVISVP2,2013-03-20 17:33:00,
2013-03-20 13:38:00,27.5,18.4,29.98,NW,312,8.0,22.0,68,0.00,,,0.00,WUHU216DAVISVP2,2013-03-20 17:38:00,
2013-03-20 13:43:00,27.5,18.4,29.97,West,263,10.0,22.0,68,0.00,,,0.00,WUHU216DAVISVP2,2013-03-20 17:43:00,
2013-03-20 13:49:00,27.6,18.8,29.98,WNW,297,8.0,22.0,69,0.00,,,0.00,WUHU216DAVISVP2,2013-03-20 17:49:00,
2013-03-20 13:54:00,28.1,19.0,29.98,NW,321,22.0,22.0,68,0.00,,,0.00,WUHU216DAVISVP2,2013-03-20 17:54:00,
2013-03-20 13:59:00,27.5,18.0,29.97,NW,321,4.0,28.0,67,0.00,,,0.00,WUHU216DAVISVP2,2013-03-20 17:59:00,
2013-03-20 14:04:00,27.5,18.0,29.98,NW,305,8.0,22.0,67,0.00,,,0.00,WUHU216DAVISVP2,2013-03-20 18:04:00,
2013-03-20 14:09:00,27.7,18.6,29.98,NW,310,8.0,20.0,68,0.00,,,0.00,WUHU216DAVISVP2,2013-03-20 18:09:00,
2013-03-20 14:14:00,27.6,18.1,29.98,NNW,342,10.0,28.0,67,0.00,,,0.00,WUHU216DAVISVP2,2013-03-20 18:14:00,
2013-03-20 14:19:00,27.2,17.4,29.98,South,188,4.0,28.0,66,0.00,,,0.00,WUHU216DAVISVP2,2013-03-20 18:19:00,
2013-03-20 14:24:00,27.1,17.7,29.98,West,270,8.0,24.0,67,0.00,,,0.00,WUHU216DAVISVP2,2013-03-20 18:24:00,
2013-03-20 14:29:00,27.1,18.3,29.98,West,260,2.0,24.0,69,0.00,,,0.00,WUHU216DAVISVP2,2013-03-20 18:29:00,
2013-03-20 14:34:00,27.4,18.6,29.98,West,269,10.0,22.0,69,0.00,,,0.00,WUHU216DAVISVP2,2013-03-20 18:34:00,
2013-03-20 14:39:00,27.3,18.9,29.97,NNE,14,8.0,22.0,70,0.00,,,0.00,WUHU216DAVISVP2,2013-03-20 18:39:00,
2013-03-20 14:44:00,27.6,19.1,29.97,WNW,284,10.0,18.0,70,0.00,,,0.00,WUHU216DAVISVP2,2013-03-20 18:44:00,
2013-03-20 14:49:00,27.8,19.3,29.97,West,264,10.0,18.0,70,0.00,,,0.00,WUHU216DAVISVP2,2013-03-20 18:49:00,
2013-03-20 14:54:00,27.9,19.1,29.97,WSW,242,6.0,18.0,69,0.00,,,0.00,WUHU216DAVISVP2,2013-03-20 18:54:00,
2013-03-20 14:59:00,28.0,18.5,29.97,WNW,298,10.0,28.0,67,0.00,,,0.00,WUHU216DAVISVP2,2013-03-20 18:59:00,
2013-03-20 15:04:00,27.7,18.2,29.96,NW,311,6.0,28.0,67,0.00,,,0.00,WUHU216DAVISVP2,2013-03-20 19:04:00,
2013-03-20 15:09:00,28.6,19.4,29.96,NNE,22,8.0,20.0,68,0.00,,,0.00,WUHU216DAVISVP2,2013-03-20 19:09:00,
2013-03-20 15:14:00,28.3,18.5,29.96,NW,319,8.0,20.0,66,0.00,,,0.00,WUHU216DAVISVP2,2013-03-20 19:14:00,
2013-03-20 15:19:00,28.1,18.3,29.96,NNW,331,14.0,20.0,66,0.00,,,0.00,WUHU216DAVISVP2,2013-03-20 19:19:00,
2013-03-20 15:24:00,28.1,18.3,29.96,NNW,328,8.0,20.0,66,0.00,,,0.00,WUHU216DAVISVP2,2013-03-20 19:24:00,
2013-03-20 15:29:00,28.2,18.4,29.96,WSW,257,2.0,18.0,66,0.00,,,0.00,WUHU216DAVISVP2,2013-03-20 19:29:00,
2013-03-20 15:34:00,28.6,19.1,29.96,NE,38,4.0,16.0,67,0.00,,,0.00,WUHU216DAVISVP2,2013-03-20 19:34:00,
2013-03-20 15:40:00,28.5,17.9,29.96,NW,320,6.0,18.0,64,0.00,,,0.00,WUHU216DAVISVP2,2013-03-20 19:40:00,
2013-03-20 15:45:00,28.6,18.4,29.96,NW,321,14.0,20.0,65,0.00,,,0.00,WUHU216DAVISVP2,2013-03-20 19:45:00,
2013-03-20 15:50:00,27.9,18.4,29.96,NNE,24,6.0,26.0,67,0.00,,,0.00,WUHU216DAVISVP2,2013-03-20 19:50:00,
2013-03-20 15:55:00,28.0,18.2,29.96,West,268,8.0,26.0,66,0.00,,,0.00,WUHU216DAVISVP2,2013-03-20 19:55:00,
2013-03-20 16:00:00,28.0,18.2,29.96,West,269,6.0,16.0,66,0.00,,,0.00,WUHU216DAVISVP2,2013-03-20 20:00:00,
2013-03-20 16:05:00,28.1,18.3,29.96,North,355,8.0,14.0,66,0.00,,,0.00,WUHU216DAVISVP2,2013-03-20 20:05:00,
2013-03-20 16:10:00,28.0,17.8,29.96,WNW,291,12.0,22.0,65,0.00,,,0.00,WUHU216DAVISVP2,2013-03-20 20:10:00,
2013-03-20 16:15:00,27.9,18.4,29.96,WNW,299,6.0,22.0,67,0.00,,,0.00,WUHU216DAVISVP2,2013-03-20 20:15:00,
2013-03-20 16:20:00,28.0,17.4,29.96,NNW,334,10.0,20.0,64,0.00,,,0.00,WUHU216DAVISVP2,2013-03-20 20:20:00,
2013-03-20 16:25:00,28.4,17.5,29.96,WSW,253,12.0,20.0,63,0.00,,,0.00,WUHU216DAVISVP2,2013-03-20 20:25:00,
2013-03-20 16:30:00,28.5,17.6,29.96,West,259,8.0,20.0,63,0.00,,,0.00,WUHU216DAVISVP2,2013-03-20 20:30:00,
2013-03-20 16:35:00,28.2,17.6,29.96,NW,304,6.0,20.0,64,0.00,,,0.00,WUHU216DAVISVP2,2013-03-20 20:35:00,
2013-03-20 16:40:00,28.3,18.8,29.96,West,269,10.0,18.0,67,0.00,,,0.00,WUHU216DAVISVP2,2013-03-20 20:40:00,
2013-03-20 16:45:00,28.3,18.5,29.96,West,279,6.0,20.0,66,0.00,,,0.00,WUHU216DAVISVP2,2013-03-20 20:45:00,
2013-03-20 16:50:00,28.3,18.1,29.95,West,263,8.0,20.0,65,0.00,,,0.00,WUHU216DAVISVP2,2013-03-20 20:50:00,
2013-03-20 16:55:00,28.2,17.6,29.96,NW,306,6.0,20.0,64,0.00,,,0.00,WUHU216DAVISVP2,2013-03-20 20:55:00,
2013-03-20 17:00:00,28.4,18.2,29.95,NW,320,10.0,20.0,65,0.00,,,0.00,WUHU216DAVISVP2,2013-03-20 21:00:00,
2013-03-20 17:05:00,28.5,18.6,29.96,NW,323,8.0,16.0,66,0.00,,,0.00,WUHU216DAVISVP2,2013-03-20 21:05:00,
2013-03-20 17:10:00,28.8,18.9,29.96,NNE,28,6.0,14.0,66,0.00,,,0.00,WUHU216DAVISVP2,2013-03-20 21:10:00,
2013-03-20 17:15:00,28.8,18.9,29.96,NNE,30,4.0,16.0,66,0.00,,,0.00,WUHU216DAVISVP2,2013-03-20 21:15:00,
2013-03-20 17:20:00,28.9,18.7,29.96,WNW,290,6.0,16.0,65,0.00,,,0.00,WUHU216DAVISVP2,2013-03-20 21:20:00,
2013-03-20 17:25:00,28.6,18.7,29.96,NNW,344,2.0,16.0,66,0.00,,,0.00,WUHU216DAVISVP2,2013-03-20 21:25:00,
2013-03-20 17:30:00,28.7,18.8,29.96,NNE,24,8.0,16.0,66,0.00,,,0.00,WUHU216DAVISVP2,2013-03-20 21:30:00,
2013-03-20 17:36:00,29.1,19.6,29.96,WNW,294,8.0,14.0,67,0.00,,,0.00,WUHU216DAVISVP2,2013-03-20 21:36:00,
2013-03-20 17:41:00,29.2,19.3,29.96,NW,323,4.0,22.0,66,0.00,,,0.00,WUHU216DAVISVP2,2013-03-20 21:41:00,
2013-03-20 17:46:00,28.8,18.2,29.96,West,263,8.0,22.0,64,0.00,,,0.00,WUHU216DAVISVP2,2013-03-20 21:46:00,
2013-03-20 17:51:00,28.4,18.5,29.96,West,269,10.0,20.0,66,0.00,,,0.00,WUHU216DAVISVP2,2013-03-20 21:51:00,
2013-03-20 17:56:00,28.1,19.0,29.96,NW,317,6.0,16.0,68,0.00,,,0.00,WUHU216DAVISVP2,2013-03-20 21:56:00,
2013-03-20 18:01:00,28.1,19.0,29.96,WNW,296,8.0,16.0,68,0.00,,,0.00,WUHU216DAVISVP2,2013-03-20 22:01:00,
2013-03-20 18:06:00,27.9,19.1,29.96,WNW,289,8.0,12.0,69,0.00,,,0.00,WUHU216DAVISVP2,2013-03-20 22:06:00,
2013-03-20 18:11:00,27.8,19.3,29.96,West,264,8.0,16.0,70,0.00,,,0.00,WUHU216DAVISVP2,2013-03-20 22:11:00,
2013-03-20 18:16:00,27.8,19.0,29.96,WNW,288,8.0,16.0,69,0.00,,,0.00,WUHU216DAVISVP2,2013-03-20 22:16:00,
2013-03-20 18:22:00,27.6,19.1,29.96,NW,319,10.0,14.0,70,0.00,,,0.00,WUHU216DAVISVP2,2013-03-20 22:22:00,
2013-03-20 18:27:00,27.4,19.0,29.96,WNW,300,8.0,18.0,70,0.00,,,0.00,WUHU216DAVISVP2,2013-03-20 22:27:00,
2013-03-20 18:32:00,27.4,19.6,29.96,NNW,333,8.0,16.0,72,0.00,,,0.00,WUHU216DAVISVP2,2013-03-20 22:32:00,
2013-03-20 18:37:00,27.5,19.7,29.96,NW,318,8.0,18.0,72,0.00,,,0.00,WUHU216DAVISVP2,2013-03-20 22:37:00,
2013-03-20 18:42:00,27.4,19.6,29.96,WNW,295,6.0,18.0,72,0.00,,,0.00,WUHU216DAVISVP2,2013-03-20 22:42:00,
2013-03-20 18:47:00,27.4,19.9,29.96,WNW,300,6.0,12.0,73,0.00,,,0.00,WUHU216DAVISVP2,2013-03-20 22:47:00,
2013-03-20 18:52:00,27.1,19.6,29.96,WNW,288,4.0,20.0,73,0.00,,,0.00,WUHU216DAVISVP2,2013-03-20 22:52:00,
2013-03-20 18:57:00,26.9,20.1,29.96,NNW,327,4.0,20.0,75,0.00,,,0.00,WUHU216DAVISVP2,2013-03-20 22:57:00,
2013-03-20 19:02:00,26.7,20.2,29.96,West,273,10.0,12.0,76,0.00,,,0.00,WUHU216DAVISVP2,2013-03-20 23:02:00,
2013-03-20 19:07:00,26.6,20.4,29.96,NW,307,2.0,12.0,77,0.00,,,0.00,WUHU216DAVISVP2,2013-03-20 23:07:00,
2013-03-20 19:12:00,26.8,20.6,29.96,NNE,26,2.0,14.0,77,0.00,,,0.00,WUHU216DAVISVP2,2013-03-20 23:12:00,
2013-03-20 19:17:00,26.9,20.4,29.96,WSW,258,8.0,14.0,76,0.00,,,0.00,WUHU216DAVISVP2,2013-03-20 23:17:00,
2013-03-20 19:22:00,26.9,20.1,29.96,NW,313,12.0,18.0,75,0.00,,,0.00,WUHU216DAVISVP2,2013-03-20 23:22:00,
2013-03-20 19:27:00,26.7,20.2,29.96,NW,304,8.0,18.0,76,0.00,,,0.00,WUHU216DAVISVP2,2013-03-20 23:27:00,
2013-03-20 19:32:00,26.6,20.1,29.96,West,273,10.0,18.0,76,0.00,,,0.00,WUHU216DAVISVP2,2013-03-20 23:32:00,
2013-03-20 19:37:00,26.5,19.7,29.96,WNW,284,4.0,16.0,75,0.00,,,0.00,WUHU216DAVISVP2,2013-03-20 23:37:00,
2013-03-20 19:42:00,26.5,20.0,29.96,WNW,303,4.0,10.0,76,0.00,,,0.00,WUHU216DAVISVP2,2013-03-20 23:42:00,
2013-03-20 19:47:00,26.5,20.0,29.96,NNW,330,14.0,16.0,76,0.00,,,0.00,WUHU216DAVISVP2,2013-03-20 23:47:00,
2013-03-20 19:52:00,26.5,19.4,29.96,West,265,12.0,16.0,74,0.00,,,0.00,WUHU216DAVISVP2,2013-03-20 23:52:00,
2013-03-20 19:57:00,26.5,19.4,29.96,WNW,290,6.0,16.0,74,0.00,,,0.00,WUHU216DAVISVP2,2013-03-20 23:57:00,
2013-03-20 20:03:00,26.5,19.1,29.96,West,279,8.0,12.0,73,0.00,,,0.00,WUHU216DAVISVP2,2013-03-21 00:03:00,
2013-03-20 20:08:00,26.7,19.3,29.97,WNW,288,8.0,18.0,73,0.00,,,0.00,WUHU216DAVISVP2,2013-03-21 00:08:00,
2013-03-20 20:13:00,26.6,18.8,29.97,North,355,4.0,18.0,72,0.00,,,0.00,WUHU216DAVISVP2,2013-03-21 00:13:00,
2013-03-20 20:18:00,26.4,19.0,29.97,West,267,12.0,26.0,73,0.00,,,0.00,WUHU216DAVISVP2,2013-03-21 00:18:00,
2013-03-20 20:23:00,26.0,19.2,29.97,West,259,12.0,26.0,75,0.00,,,0.00,WUHU216DAVISVP2,2013-03-21 00:23:00,
2013-03-20 20:28:00,25.8,19.3,29.97,West,267,2.0,14.0,76,0.00,,,0.00,WUHU216DAVISVP2,2013-03-21 00:28:00,
2013-03-20 20:33:00,25.8,19.3,29.97,WSW,250,6.0,12.0,76,0.00,,,0.00,WUHU216DAVISVP2,2013-03-21 00:33:00,
2013-03-20 20:38:00,26.0,18.3,29.97,WNW,290,10.0,14.0,72,0.00,,,0.00,WUHU216DAVISVP2,2013-03-21 00:38:00,
2013-03-20 20:43:00,26.2,17.5,29.97,NNW,340,8.0,18.0,69,0.00,,,0.00,WUHU216DAVISVP2,2013-03-21 00:43:00,
2013-03-20 20:48:00,26.4,17.3,29.97,WSW,250,8.0,20.0,68,0.00,,,0.00,WUHU216DAVISVP2,2013-03-21 00:48:00,
2013-03-20 20:53:00,26.4,17.7,29.97,West,269,12.0,20.0,69,0.00,,,0.00,WUHU216DAVISVP2,2013-03-21 00:53:00,
2013-03-20 20:58:00,26.3,17.6,29.97,WNW,297,6.0,14.0,69,0.00,,,0.00,WUHU216DAVISVP2,2013-03-21 00:58:00,
2013-03-20 21:03:00,26.3,17.6,29.97,North,355,6.0,14.0,69,0.00,,,0.00,WUHU216DAVISVP2,2013-03-21 01:03:00,
2013-03-20 21:08:00,26.1,18.0,29.97,WNW,302,12.0,20.0,71,0.00,,,0.00,WUHU216DAVISVP2,2013-03-21 01:08:00,
2013-03-20 21:13:00,25.9,18.2,29.97,NNW,340,10.0,20.0,72,0.00,,,0.00,WUHU216DAVISVP2,2013-03-21 01:13:00,
2013-03-20 21:18:00,25.8,18.4,29.97,West,263,4.0,18.0,73,0.00,,,0.00,WUHU216DAVISVP2,2013-03-21 01:18:00,
2013-03-20 21:23:00,25.8,18.7,29.98,WNW,293,2.0,14.0,74,0.00,,,0.00,WUHU216DAVISVP2,2013-03-21 01:23:00,
2013-03-20 21:28:00,25.6,18.5,29.98,NW,316,8.0,20.0,74,0.00,,,0.00,WUHU216DAVISVP2,2013-03-21 01:28:00,
2013-03-20 21:33:00,25.4,18.3,29.98,WNW,284,6.0,20.0,74,0.00,,,0.00,WUHU216DAVISVP2,2013-03-21 01:33:00,
2013-03-20 21:38:00,25.4,18.0,29.98,WNW,290,4.0,18.0,73,0.00,,,0.00,WUHU216DAVISVP2,2013-03-21 01:38:00,
2013-03-20 21:43:00,25.3,17.9,29.98,WNW,302,6.0,18.0,73,0.00,,,0.00,WUHU216DAVISVP2,2013-03-21 01:43:00,
2013-03-20 21:48:00,25.3,18.2,29.97,NW,311,2.0,14.0,74,0.00,,,0.00,WUHU216DAVISVP2,2013-03-21 01:48:00,
2013-03-20 21:53:00,25.3,18.2,29.97,NW,315,8.0,14.0,74,0.00,,,0.00,WUHU216DAVISVP2,2013-03-21 01:53:00,
2013-03-20 21:58:00,25.4,17.7,29.97,West,266,8.0,24.0,72,0.00,,,0.00,WUHU216DAVISVP2,2013-03-21 01:58:00,
2013-03-20 22:03:00,25.4,17.4,29.97,North,355,14.0,24.0,71,0.00,,,0.00,WUHU216DAVISVP2,2013-03-21 02:03:00,
2013-03-20 22:08:00,25.4,16.4,29.97,WNW,295,10.0,16.0,68,0.00,,,0.00,WUHU216DAVISVP2,2013-03-21 02:08:00,
2013-03-20 22:13:00,25.4,16.0,29.98,North,5,4.0,24.0,67,0.00,,,0.00,WUHU216DAVISVP2,2013-03-21 02:13:00,
2013-03-20 22:18:00,25.4,16.4,29.97,SSW,209,4.0,24.0,68,0.00,,,0.00,WUHU216DAVISVP2,2013-03-21 02:18:00,
2013-03-20 22:23:00,25.4,16.4,29.97,NW,317,8.0,14.0,68,0.00,,,0.00,WUHU216DAVISVP2,2013-03-21 02:23:00,
2013-03-20 22:28:00,25.3,15.6,29.97,NW,306,22.0,22.0,66,0.00,,,0.00,WUHU216DAVISVP2,2013-03-21 02:28:00,
2013-03-20 22:33:00,25.2,15.5,29.97,NW,306,10.0,22.0,66,0.00,,,0.00,WUHU216DAVISVP2,2013-03-21 02:33:00,
2013-03-20 22:38:00,25.2,15.8,29.97,West,268,12.0,16.0,67,0.00,,,0.00,WUHU216DAVISVP2,2013-03-21 02:38:00,
2013-03-20 22:44:00,25.0,16.3,29.97,WNW,300,14.0,16.0,69,0.00,,,0.00,WUHU216DAVISVP2,2013-03-21 02:44:00,
2013-03-20 22:49:00,24.9,16.6,29.97,WNW,290,10.0,14.0,70,0.00,,,0.00,WUHU216DAVISVP2,2013-03-21 02:49:00,
2013-03-20 22:54:00,24.9,15.5,29.97,NW,309,10.0,14.0,67,0.00,,,0.00,WUHU216DAVISVP2,2013-03-21 02:54:00,
2013-03-20 22:59:00,24.9,15.5,29.97,WNW,295,0.0,14.0,67,0.00,,,0.00,WUHU216DAVISVP2,2013-03-21 02:59:00,
2013-03-20 23:04:00,24.8,14.8,29.97,West,278,8.0,26.0,65,0.00,,,0.00,WUHU216DAVISVP2,2013-03-21 03:04:00,
2013-03-20 23:09:00,24.3,16.0,29.97,West,279,10.0,26.0,70,0.00,,,0.00,WUHU216DAVISVP2,2013-03-21 03:09:00,
2013-03-20 23:14:00,24.2,16.2,29.97,NW,308,4.0,24.0,71,0.00,,,0.00,WUHU216DAVISVP2,2013-03-21 03:14:00,
2013-03-20 23:19:00,24.3,15.3,29.97,WNW,300,4.0,16.0,68,0.00,,,0.00,WUHU216DAVISVP2,2013-03-21 03:19:00,
2013-03-20 23:24:00,24.4,15.1,29.97,WNW,297,10.0,16.0,67,0.00,,,0.00,WUHU216DAVISVP2,2013-03-21 03:24:00,
2013-03-20 23:29:00,24.4,15.7,29.97,West,259,10.0,32.0,69,0.00,,,0.00,WUHU216DAVISVP2,2013-03-21 03:29:00,
2013-03-20 23:34:00,24.0,16.3,29.97,WNW,294,8.0,32.0,72,0.00,,,0.00,WUHU216DAVISVP2,2013-03-21 03:34:00,
2013-03-20 23:39:00,23.7,17.3,29.97,WNW,287,10.0,22.0,76,0.00,,,0.00,WUHU216DAVISVP2,2013-03-21 03:39:00,
2013-03-20 23:44:00,22.9,17.4,29.97,WSW,246,4.0,22.0,79,0.00,,,0.00,WUHU216DAVISVP2,2013-03-21 03:44:00,
2013-03-20 23:49:00,22.6,17.4,29.97,NW,315,14.0,16.0,80,0.00,,,0.00,WUHU216DAVISVP2,2013-03-21 03:49:00,
2013-03-20 23:54:00,22.4,17.7,29.97,NW,308,8.0,14.0,82,0.00,,,0.00,WUHU216DAVISVP2,2013-03-21 03:54:00,
2013-03-20 23:59:00,22.5,17.3,29.97,West,272,0.0,14.0,80,0.00,,,0.00,WUHU216DAVISVP2,2013-03-21 03:59:00,